Location: Bishop�s Knoyle
(51.0728°N, 2.1714°W)
Time: 04:51:27
(UTC+00:00)

ARGOS - Pass Details

Date: 18 September 2020
Orbit: 821 x 834 km, 98.4° (Epoch: 20 October)

Event Time Altitude Azimuth Distance (km) Brightness Sun altitude
Rises 19:15:18 0° 163° (SSE) 3,342 6.0 -10.2°
Reaches altitude 10° 19:17:38 10° 163° (SSE) 2,415 5.3 -10.5°
Maximum altitude 19:23:00 89° 69° (ENE) 831 3.2 -11.3°
Drops below altitude 10° 19:28:25 10° 345° (NNW) 2,438 6.1 -12.1°
Sets 19:30:47 0° 346° (NNW) 3,377 6.8 -12.5°
